Ocala, FL

3:17 AM EDT on July 27, 2017 (GMT -0400)
Ocala Regional-Taylor

Weather History for KOCF - December, 2011

Change the Weather History Date:

Wednesday, December 14, 2011

  Actual Average Record
Temperature  
Mean Temperature 65 °F -  
Max Temperature 75 °F 67 °F 84 °F (2001)
Min Temperature 55 °F 44 °F 24 °F (2010)
Growing Degree Days 15 (Base 50)    
Moisture  
Dew Point 54 °F    
Average Humidity 79    
Maximum Humidity 94    
Minimum Humidity 47    
Precipitation  
Precipitation 0.00 in - - ()
Sea Level Pressure  
Sea Level Pressure 30.30 in    
Wind  
Wind Speed 5 mph (NE)    
Max Wind Speed 9 mph    
Max Gust Speed -    
Visibility 8 miles    
Events      
Averages and records for this station are not official NWS values.
T = Trace of Precipitation, MM = Missing Value Source: NWS Daily Summary

Daily Weather History Graph

Daily Weather History Graph

Search for Another Location

Airport or City:

Trip Planner

Search our weather history database for the weather conditions in past years. The results will help you decide how hot, cold, wet, or windy it might be!

Date:

Astronomy

Dec. 14, 2011 Rise Set
Actual Time 7:14 AM EST 5:32 PM EST
Civil Twilight 6:48 AM EST 5:58 PM EST
Nautical Twilight 6:18 AM EST 6:28 PM EST
Astronomical Twilight 5:49 AM EST 6:57 PM EST
Moon 9:36 PM EST (12/14) 10:10 AM EST (12/14)
Length of Visible Light 11h 10m
Length of Day
10h 17m
Waning Gibbous, 83% of the Moon is Illuminated
Dec 14
Waning Gibbous
Dec 17
Last Quarter
Dec 24
New
Jan 1
First Quarter
Jan 9
Full

Hourly Weather History & Observations

Time (EST) Temp. Dew Point Humidity Pressure Visibility Wind Dir Wind Speed Gust Speed Precip Events Conditions
12:15 AM 59.0 °F 55.4 °F 88% 30.33 in 6.0 mi NE 6.9 mph - N/A   Overcast
12:35 AM 59.0 °F 55.4 °F 88% 30.33 in 4.0 mi NNE 4.6 mph - N/A   Overcast
12:55 AM 59.0 °F 55.4 °F 88% 30.32 in 2.5 mi NE 4.6 mph - N/A   Overcast
1:15 AM 59.0 °F 55.4 °F 88% 30.32 in 1.5 mi NNE 4.6 mph - N/A   Overcast
1:35 AM 59.0 °F 55.4 °F 88% 30.32 in 1.5 mi NNE 5.8 mph - N/A   Overcast
1:55 AM 59.0 °F 55.4 °F 88% 30.32 in 2.5 mi NNE 4.6 mph - N/A   Overcast
2:15 AM 59.0 °F 55.4 °F 88% 30.31 in 4.0 mi NNE 4.6 mph - N/A   Overcast
2:35 AM 59.0 °F 55.4 °F 88% 30.31 in 6.0 mi NNE 5.8 mph - N/A   Overcast
2:55 AM 59.0 °F 55.4 °F 88% 30.30 in 7.0 mi NNE 4.6 mph - N/A   Overcast
3:15 AM 59.0 °F 55.4 °F 88% 30.30 in 7.0 mi NE 4.6 mph - N/A   Overcast
3:35 AM 59.0 °F 55.4 °F 88% 30.30 in 7.0 mi NNE 4.6 mph - N/A   Overcast
3:55 AM 59.0 °F 55.4 °F 88% 30.30 in 6.0 mi NE 5.8 mph - N/A   Overcast
4:15 AM 59.0 °F 55.4 °F 88% 30.29 in 5.0 mi NNE 4.6 mph - N/A   Overcast
4:35 AM 59.0 °F 55.4 °F 88% 30.29 in 4.0 mi NE 4.6 mph - N/A   Overcast
4:55 AM 59.0 °F 55.4 °F 88% 30.29 in 3.0 mi NNE 5.8 mph - N/A   Overcast
5:15 AM 59.0 °F 55.4 °F 88% 30.29 in 5.0 mi NNE 4.6 mph - N/A   Overcast
5:35 AM 57.2 °F 55.4 °F 94% 30.30 in 9.0 mi NE 6.9 mph - N/A   Overcast
5:55 AM 57.2 °F 53.6 °F 88% 30.30 in 7.0 mi NE 5.8 mph - N/A   Overcast
6:15 AM 57.2 °F 53.6 °F 88% 30.30 in 6.0 mi NE 5.8 mph - N/A   Overcast
6:35 AM 57.2 °F 53.6 °F 88% 30.30 in 5.0 mi NNE 4.6 mph - N/A   Overcast
7:50 AM 55.4 °F 51.8 °F 88% 30.32 in 3.0 mi NNE 3.5 mph - N/A   Partly Cloudy
8:50 AM 59.0 °F 55.4 °F 88% 30.33 in 10.0 mi NE 4.6 mph - N/A   Clear
9:50 AM 66.2 °F 57.2 °F 73% 30.34 in 10.0 mi NE 5.8 mph - N/A   Clear
10:50 AM 71.6 °F 57.2 °F 60% 30.30 in 10.0 mi East 6.9 mph - N/A   Clear
11:50 AM 73.4 °F 55.4 °F 53% 30.31 in 10.0 mi ENE 8.1 mph - N/A   Scattered Clouds
12:50 PM 75.2 °F 55.4 °F 50% 30.28 in 10.0 mi East 5.8 mph - N/A   Mostly Cloudy
1:50 PM 75.2 °F 53.6 °F 47% 30.25 in 10.0 mi East 6.9 mph - N/A   Mostly Cloudy
2:50 PM 75.2 °F 53.6 °F 47% 30.24 in 10.0 mi East 9.2 mph - N/A   Mostly Cloudy
3:50 PM 75.2 °F 53.6 °F 47% 30.24 in 10.0 mi NE 6.9 mph - N/A   Mostly Cloudy
4:50 PM 71.6 °F 53.6 °F 53% 30.25 in 10.0 mi ENE 8.1 mph - N/A   Scattered Clouds
5:50 PM 69.8 °F 53.6 °F 56% 30.25 in 10.0 mi East 4.6 mph - N/A   Clear
6:50 PM 66.2 °F 53.6 °F 64% 30.27 in 10.0 mi ENE 4.6 mph - N/A   Clear
7:55 PM 64.4 °F 53.6 °F 68% 30.28 in 10.0 mi Calm Calm - N/A   Clear
8:15 PM 62.6 °F 53.6 °F 72% 30.29 in 10.0 mi ENE 3.5 mph - N/A   Clear
8:35 PM 62.6 °F 53.6 °F 72% 30.29 in 10.0 mi NNE 3.5 mph - N/A   Clear
8:55 PM 60.8 °F 51.8 °F 72% 30.29 in 10.0 mi NNE 3.5 mph - N/A   Clear
9:35 PM 57.2 °F 51.8 °F 82% 30.30 in 10.0 mi North 4.6 mph - N/A   Clear
9:55 PM 57.2 °F 51.8 °F 82% 30.30 in 10.0 mi Calm Calm - N/A   Clear
10:15 PM 55.4 °F 51.8 °F 88% 30.30 in 10.0 mi Calm Calm - N/A   Clear
10:35 PM 57.2 °F 51.8 °F 82% 30.30 in 10.0 mi Calm Calm - N/A   Clear
10:55 PM 55.4 °F 51.8 °F 88% 30.29 in 10.0 mi Calm Calm - N/A   Clear
11:15 PM 55.4 °F 51.8 °F 88% 30.29 in 10.0 mi Calm Calm - N/A   Clear
11:35 PM 57.2 °F 53.6 °F 88% 30.29 in 10.0 mi Calm Calm - N/A   Clear
11:55 PM 57.2 °F 53.6 °F 88% 30.28 in 10.0 mi Calm Calm - N/A   Clear